Regional Weather Roundup
Issued by NWS

Home | Current Version | Previous Version | Graphics & Text | Print | Product List | Glossary On
Versions: 1 2 3 4 5 6 7 8 9 10 11 12 13 14 15 16 17 18 19 20 21 22 23 24 25 26 27 28 29 30 31 32 33 34 35 36 37 38 39 40 41 42 43 44 45 46 47 48 49 50
000
ASUS43 KLSX 172207
RWRMO

WEATHER SUMMARY FOR MISSOURI
NATIONAL WEATHER SERVICE SPRINGFIELD MO
500 PM CDT THU APR 17 2014

NOTE: "FAIR" INDICATES FEW OR NO CLOUDS BELOW 12,000 FEET WITH NO
       SIGNIFICANT WEATHER AND/OR OBSTRUCTIONS TO VISIBILITY.
       CURRENT SKY AND/OR WEATHER CONDITIONS ARE NOT AVAILABLE FOR
       CHILLICOTHE AND FARMINGTON.

MOZ001>031-035>038-043-044-053-054-172300-
...NORTHERN AND WESTERN MISSOURI...

CITY           SKY/WX    TMP DP  RH WIND       PRES   REMARKS
KANSAS CTY INT CLOUDY    50  33  52 NW3       30.27F
KANSAS C DTWN  CLOUDY    49  33  54 W3        30.28S
LEE`S SUMMIT   LGT RAIN  44  34  67 CALM      30.28S
ST JOSEPH      MOSUNNY   53  30  41 VRB5      30.26F
CHILLICOTHE      N/A     51  33  50 CALM      30.28S
KIRKSVILLE     CLOUDY    52  33  48 SE3       30.26S

$$
MOZ066>068-077>081-088>096-101>105-172300-
...SOUTHWEST MISSOURI...

CITY           SKY/WX    TMP DP  RH WIND       PRES   REMARKS
SPRINGFIELD    PTSUNNY   62  40  44 N10       30.21S
JOPLIN         CLOUDY    56  40  55 N10       30.24R

$$
MOZ032>034-039>042-045>050-055>058-069>072-172300-
...CENTRAL MISSOURI...

CITY           SKY/WX    TMP DP  RH WIND       PRES   REMARKS
COLUMBIA       CLOUDY    52  39  61 NW10      30.26R
JEFFERSON CITY CLOUDY    55  39  54 NW14      30.25R
ROLLA          CLOUDY    60  40  47 NW8       30.21R
SEDALIA        CLOUDY    49  37  63 NW7       30.28S
OSAGE BEACH    CLOUDY    61  39  44 N9        30.25R

$$
MOZ051-052-059>065-172300-
...EAST CENTRAL MISSOURI...

CITY           SKY/WX    TMP DP  RH WIND       PRES   REMARKS
ST LOUIS INTL  CLOUDY    65  38  36 NW7       30.22S
SPIRIT OF STL  CLOUDY    64  39  39 N6        30.21R
ST CHARLES     CLOUDY    63  37  38 W5        30.22S

$$
MOZ072>076-082>087-097>100-106>115-172300-
...SOUTH CENTRAL AND SOUTHEAST MISSOURI...

CITY           SKY/WX    TMP DP  RH WIND       PRES   REMARKS
CAPE GIRARDEAU MOSUNNY   65  42  43 SW8       30.24R
FARMINGTON     MOSUNNY   68  30  24 CALM      30.21F
POPLAR BLUFF   SUNNY     67  40  37 S8        30.22S
WEST PLAINS    PTSUNNY   67  32  27 CALM      30.21R

$$



USA.gov is the U.S. government's official web portal to all federal, state and local government web resources and services.